Vero Beach, FL

12:24 AM EDT on March 24, 2017 (GMT -0400)
Vero Beach Municipal

Weather History for KVRB - September, 2012

Change the Weather History Date:

Wednesday, September 26, 2012

  Actual Average Record
Temperature  
Mean Temperature 78 °F 80 °F  
Max Temperature 86 °F 87 °F 93 °F (2000)
Min Temperature 70 °F 73 °F 63 °F (2008)
Degree Days  
Heating Degree Days 0 0  
Month to date heating degree days 0 0  
Since 1 July heating degree days 0 0  
Cooling Degree Days 13 15  
Month to date cooling degree days 390 410  
Year to date cooling degree days 2923 2708  
Growing Degree Days 27 (Base 50)    
Moisture  
Dew Point 72 °F    
Average Humidity 82    
Maximum Humidity 94    
Minimum Humidity 70    
Precipitation  
Precipitation 0.01 in 0.22 in 6.00 in (2004)
Month to date precipitation 8.66 5.88  
Year to date precipitation 40.85 40.58  
Sea Level Pressure  
Sea Level Pressure 30.08 in    
Wind  
Wind Speed 4 mph (NE)    
Max Wind Speed 13 mph    
Max Gust Speed 16 mph    
Visibility 10 miles    
Events      
T = Trace of Precipitation, MM = Missing Value Source: NWS Daily Summary

Daily Weather History Graph

Daily Weather History Graph

Search for Another Location

Airport or City:

Trip Planner

Search our weather history database for the weather conditions in past years. The results will help you decide how hot, cold, wet, or windy it might be!

Date:

Astronomy

Sep. 26, 2012 Rise Set
Actual Time 7:12 AM EDT 7:12 PM EDT
Civil Twilight 6:48 AM EDT 7:36 PM EDT
Nautical Twilight 6:21 AM EDT 8:03 PM EDT
Astronomical Twilight 5:54 AM EDT 8:30 PM EDT
Moon 4:59 PM EDT (9/26) 3:52 AM EDT (9/26)
Length of Visible Light 12h 47m
Length of Day
12h 00m
Waxing Gibbous, 88% of the Moon is Illuminated
Sep 26
Waxing Gibbous
Sep 29
Full
Oct 8
Last Quarter
Oct 15
New
Oct 21
First Quarter

Hourly Weather History & Observations

Time (EDT) Temp. Heat Index Dew Point Humidity Pressure Visibility Wind Dir Wind Speed Gust Speed Precip Events Conditions
12:53 AM 71.6 °F - 68.0 °F 88% 30.10 in 10.0 mi Calm Calm - N/A   Clear
1:53 AM 70.0 °F - 66.9 °F 90% 30.07 in 9.0 mi Calm Calm - N/A   Clear
2:53 AM 71.1 °F - 68.0 °F 90% 30.05 in 10.0 mi Calm Calm - N/A   Clear
3:53 AM 71.6 °F - 69.8 °F 94% 30.05 in 10.0 mi NW 3.5 mph - N/A   Clear
4:53 AM 72.0 °F - 69.1 °F 91% 30.04 in 10.0 mi Calm Calm - N/A   Partly Cloudy
5:53 AM 71.1 °F - 69.1 °F 93% 30.05 in 10.0 mi West 4.6 mph - N/A   Clear
6:53 AM 71.1 °F - 69.1 °F 93% 30.07 in 9.0 mi Calm Calm - N/A   Clear
7:53 AM 73.0 °F - 70.0 °F 90% 30.08 in 8.0 mi Calm Calm - N/A   Clear
8:53 AM 78.1 °F - 73.0 °F 84% 30.09 in 10.0 mi Calm Calm - N/A   Clear
9:53 AM 82.9 °F 90.8 °F 75.9 °F 79% 30.10 in 10.0 mi NE 5.8 mph - N/A   Clear
10:53 AM 84.9 °F 92.1 °F 73.9 °F 69% 30.11 in 10.0 mi NE 5.8 mph - N/A   Scattered Clouds
11:53 AM 84.0 °F 91.2 °F 73.9 °F 72% 30.11 in 10.0 mi NNE 6.9 mph - N/A   Scattered Clouds
12:53 PM 84.9 °F 91.4 °F 73.0 °F 67% 30.11 in 10.0 mi NE 9.2 mph - N/A   Partly Cloudy
1:53 PM 84.9 °F 91.4 °F 73.0 °F 67% 30.09 in 10.0 mi NE 8.1 mph - N/A   Clear
2:53 PM 84.9 °F 91.4 °F 73.0 °F 67% 30.07 in 10.0 mi ENE 9.2 mph - N/A   Scattered Clouds
3:53 PM 84.0 °F 91.2 °F 73.9 °F 72% 30.06 in 10.0 mi ENE 6.9 mph - N/A   Clear
4:53 PM 82.9 °F 88.8 °F 73.0 °F 72% 30.06 in 10.0 mi NE 8.1 mph - N/A   Clear
5:53 PM 82.4 °F 88.2 °F 73.4 °F 74% 30.06 in 10.0 mi NE 6.9 mph - N/A   Scattered Clouds
6:53 PM 81.0 °F 86.2 °F 73.9 °F 79% 30.08 in 10.0 mi NE 4.6 mph - N/A   Clear
7:53 PM 80.1 °F 84.5 °F 73.9 °F 81% 30.10 in 10.0 mi Calm Calm - N/A   Overcast
8:53 PM 79.0 °F - 75.0 °F 88% 30.10 in 10.0 mi Calm Calm - 0.01 in   Mostly Cloudy
9:53 PM 77.0 °F - 75.0 °F 94% 30.11 in 10.0 mi Calm Calm - N/A   Clear
10:53 PM 75.9 °F - 73.9 °F 94% 30.12 in 10.0 mi Calm Calm - N/A   Clear
11:53 PM 75.2 °F - 73.4 °F 94% 30.10 in 10.0 mi North 3.5 mph - N/A   Clear